Powrót do katalogu

THOR ABLESTAR DEB

AktywnyLEO
NORAD 5715·DEBRIS·🇺🇸 United States

Wystrzelony Jun 29, 1961 z Cape Canaveral Space Force Station

Loading…

Następne Przeloty (najbliższe 24 godziny)

TLE

ŚwieżeSource: Space-Track

Epoka: Sep 13, 2026, 02:08 UTC

1 05715U 61015JS  26256.08942030  .00000623  00000-0  80137-3 0  9991
2 05715  66.5589 250.1882 0152279   1.1661  62.7230 13.64501094213724

Śledź THOR ABLESTAR DEB w czasie rzeczywistym z AllMySat

Download on the App Store